Weather in Tkvarcheli

Abkhazia     42°50′49″N   41°41′15″E
temp.,
°C
wind,
m/s
gust,
m/s
humid.,
%
clouds,
%
prec.,
mm/h
press.,
hPa
HPBL,
m
15 april, thu
thu1500:00+8ne336895 0.0 101941
03:00+7ne336326 0.0 101947
06:00+7ne44613 0.0 101952
09:00+15e124028 0.0 1017513
12:00+19s123496 0.0 10161413
15:00+19wsw2137100 0.0 10161192
18:00+15nw1169100 0.1 101713
21:00+11e117550 0.1 101919
16 april, fri
fri1600:00+10ene227493 0.0 101924
03:00+9ne226829 0.0 101821
06:00+9ne226369 0.0 101827
09:00+17ssw12443 0.0 1017520
12:00+20wsw324294 0.0 10171246
15:00+19w324599 0.1 10171145
18:00+14sw22755 0.0 1018141
21:00+9e118824 0.1 102114
17 april, sat
sat1700:00+9sw0195100 0.1 1022137
03:00+9n1295100 1.6 102164
06:00+9ssw1196100 0.3 102281
09:00+10s0195100 3.0 1023191
12:00+14sw1178100 0.3 1021489
15:00+15w3376100 0.4 1020515
18:00+12ne1189100 0.7 102143
21:00+10ene1292100 0.8 102267
18 april, sun
sun1800:00+12ne2278100 0.0 102037
03:00+12nne2274100 0.0 101829
06:00+13ne3372100 0.2 101753
09:00+19ne1257100 0.3 1017241
12:00+20w2257100 0.1 1017858
15:00+15e358983 3.5 1018186
18:00+15se1491100 0.1 1019216
21:00+13ne3285100 0.6 101926
19 april, mon
mon1900:00+13ne328090 0.1 101930
03:00+13ne3377100 0.1 101938
06:00+14ne3373100 0.0 101840
09:00+20sw115677 0.0 1018398
12:00+20ne126094 0.0 101752
15:00+25sse113783 0.0 10151610
18:00+21ene2263100 0.0 101426
21:00+17ne566183 0.0 101385